Regional Weather Roundup
Issued by NWS

Home | Current Version | Previous Version | Graphics & Text | Print | Product List | Glossary On
Versions: 1 2 3 4 5 6 7 8 9 10 11 12 13 14 15 16 17 18 19 20 21 22 23 24 25 26 27 28 29 30 31 32 33 34 35 36 37 38 39 40 41 42 43 44 45 46 47 48 49 50
000
ASUS43 KLMK 232102
RWRKY
KENTUCKY REGIONAL WEATHER ROUNDUP
NATIONAL WEATHER SERVICE LOUISVILLE KY
500 PM EDT SAT MAY 23 2015

NOTE "FAIR" INDICATES FEW OR NO CLOUDS BELOW 12,000 FEET
WITH NO SIGNIFICANT WEATHER AND/OR OBSTRUCTIONS TO VISIBILITY.

KYZ001>023-026-027-061>063-070>075-232200-
WESTERN AND SOUTH CENTRAL KENTUCKY

CITY           SKY/WX    TMP DP  RH WIND       PRES   REMARKS
PADUCAH        MOSUNNY   82  56  40 SE9       30.23F
HENDERSON      SUNNY     77  48  36 SE7       30.25F
OWENSBORO      SUNNY     79  49  34 SE10      30.28F
HOPKINSVILLE   SUNNY     79  47  32 S6        30.26F
BOWLING GREEN  SUNNY     79  43  27 VRB6      30.29F
GLASGOW        NOT AVBL
$$

KYZ024-025-028>034-038-045-046-053-232200-
NORTH CENTRAL KENTUCKY

CITY           SKY/WX    TMP DP  RH WIND       PRES   REMARKS
LOUISVILLE/SDF PTSUNNY   80  46  30 VRB6      30.29F
LOUISVILLE/LOU MOSUNNY   80  45  28 SE9       30.30F
FORT KNOX      MOSUNNY   78  46  32 VRB6      30.28F
$$

KYZ035>037-039>044-047>052-055>060-089>105-232200-
NORTHEAST KENTUCKY

CITY           SKY/WX    TMP DP  RH WIND       PRES   REMARKS
LEXINGTON      MOSUNNY   78  45  30 S5        30.32F
COVINGTON      MOSUNNY   79  44  28 CALM      30.31F
FRANKFORT      MOSUNNY   78  41  26 SE9       30.30F
$$

KYZ054-064>069-076>088-106>120-232200-
SOUTHEAST KENTUCKY

CITY           SKY/WX    TMP DP  RH WIND       PRES   REMARKS
JACKSON        MOSUNNY   77  43  29 CALM      30.34F
LONDON         PTSUNNY   79  43  27 W5        30.33F
SOMERSET       NOT AVBL
MIDDLESBORO    NOT AVBL
MONTICELLO     PTCLDY    81  55  40 E7        30.33F
$$



USA.gov is the U.S. government's official web portal to all federal, state and local government web resources and services.